Regional Weather Roundup
Issued by NWS

Home | Current Version | Previous Version | Graphics & Text | Print | Product List | Glossary On
Versions: 1 2 3 4 5 6 7 8 9 10 11 12 13 14 15 16 17 18 19 20 21 22 23 24 25 26 27 28 29 30 31 32 33 34 35 36 37 38 39 40 41 42 43 44 45 46 47 48 49 50
000
ASUS43 KDMX 260207
RWRIA

WEATHER ROUNDUP FOR IOWA
NATIONAL WEATHER SERVICE DES MOINES IA
900 PM CDT FRI JUL 25 2014

NOTE: "FAIR" INDICATES FEW OR NO CLOUDS BELOW 12,000 FEET WITH NO
SIGNIFICANT WEATHER AND/OR OBSTRUCTIONS TO VISIBILITY.

* - THESE STATIONS ARE NOT NWS STATIONS...THUS NOT UNDER NWS
QUALITY CONTROL.  THEY ALSO DO NOT REPORT WEATHER SUCH
AS PRECIPITATION OR FOG.

IAZ001>003-012>014-020>022-031>034-043>046-260300-
   NORTHWEST IOWA

CITY           SKY/WX    TMP DP  RH WIND       PRES   REMARKS
CARROLL *      CLOUDY    75  72  88 SE6       29.77S
CHEROKEE *     CLOUDY    77  72  83 E6        29.78R
DENISON *      MOCLDY    79  77  94 NE5       29.75R HX  83
LE MARS *      CLOUDY    79  73  83 SE7       29.79R HX  82
ORANGE CITY *  CLOUDY    79  70  73 CALM      29.80R HX  81
SHELDON *      CLOUDY    75  72  88 SE5       29.78S
SIOUX CITY     CLOUDY    82  73  74 E7        29.76R HX  87
SPENCER        CLOUDY    76  70  82 CALM      29.79S
STORM LAKE *   CLOUDY    73  73 100 SE3       29.80S
$$

IAZ055>058-069>071-079>083-090>094-260300-
   SOUTHWEST IOWA

CITY           SKY/WX    TMP DP  RH WIND       PRES   REMARKS
ATLANTIC *     CLEAR     79  72  78 SE5       29.75S HX  82
AUDUBON *      CLEAR     79  73  83 E3        29.78S HX  82
CLARINDA *     PTCLDY    81  77  89 NE7       29.75R HX  88
COUNCIL BLFS * CLEAR     82  79  89 E6        29.73S HX  93
CRESTON *      PTCLDY    73  72  94 E7        29.77F
HARLAN  *      CLEAR     79  75  89 CALM      29.79R HX  82
LAMONI         PTCLDY    76  71  85 E6        29.76F
RED OAK *      CLEAR     81  75  83 E7        29.74S HX  86
SHENANDOAH *   CLEAR     86  81  84 CALM      29.73R HX 102
$$

IAZ047>049-059>061-072>074-084-260300-
   CENTRAL IOWA

CITY           SKY/WX    TMP DP  RH WIND       PRES   REMARKS
AMES           PTCLDY    74  70  87 E3        29.78S
ANKENY *       MOCLDY    75  72  88 E5        29.77S
CHARITON *     CLEAR     75  72  88 SE7       29.78S
DES MOINES     PTCLDY    79  71  76 SE7       29.76F HX  82
GRINNELL*      MOCLDY    73  70  88 SE7       29.81S
KNOXVILLE *    CLEAR     75  70  83 SE7       29.77S
MARSHALLTOWN   CLOUDY    73  70  90 SE6       29.79S
PELLA *        PTCLDY    75  70  83 SE7       29.80S
PERRY *        MOCLDY    75  72  88 SE5       29.77S
$$

IAZ004>006-015-016-023>025-035-036-260300-
   NORTH CENTRAL IOWA

CITY           SKY/WX    TMP DP  RH WIND       PRES   REMARKS
ALGONA *       CLOUDY    75  72  88 SE3       29.80S
CLARION *      CLOUDY    73  72  94 E6        29.79F
ESTHERVILLE    CLOUDY    74  71  91 CALM      29.80
FORT DODGE *   CLOUDY    73  70  88 E6        29.80R
MASON CITY     CLOUDY    74  70  87 S5        29.81S
FOREST CITY *  CLOUDY    73  72  94 CALM      29.81S
IOWA FALLS *   CLOUDY    73  70  88 SE5       29.81S
$$

IAZ007>011-017>019-026>030-037>042-050>054-066-260300-
   NORTHEAST IOWA

CITY           SKY/WX    TMP DP  RH WIND       PRES   REMARKS
CEDAR RAPIDS   CLOUDY    72  66  81 SE9       29.82F
CHARLES CITY * CLOUDY    73  70  88 SE5       29.82R
CLINTON *      CLOUDY    66  63  88 SE12      29.91F
DECORAH *      CLOUDY    70  66  88 SE8G17    29.82S
DUBUQUE        CLOUDY    65  63  93 SE10      29.88S
MONTICELLO *   CLOUDY    68  64  88 SE8G17    29.85F
OELWEIN *      CLOUDY    72  68  88 SE12G18   29.84S
WATERLOO       CLOUDY    74  68  81 SE9       29.80S
$$

IAZ064-065-067-068-078-260300-
   EAST CENTRAL IOWA

CITY           SKY/WX    TMP DP  RH WIND       PRES   REMARKS
DAVENPORT      CLOUDY    69  64  84 SE12      29.88F
IOWA CITY      CLOUDY    72  67  84 SE10      29.84F
MT. PLEASANT * PTCLDY    72  64  78 SE6       29.84S
MUSCATINE *    CLOUDY    73  64  73 SE10      29.85S
QUAD CITIES    CLOUDY    70  65  84 E10       29.87F
$$

IAZ062-063-075>077-085>089-095>099-260300-
   SOUTHEAST IOWA

CITY           SKY/WX    TMP DP  RH WIND       PRES   REMARKS
BURLINGTON     MOCLDY    73  63  70 SE8       29.85S
FAIRFIELD *    MOCLDY    73  68  83 SE6       29.82F
FORT MADISON * MOCLDY    73  64  73 SE8       29.85F
KEOKUK *       CLOUDY    73  66  78 SE8       29.83F
OSKALOOSA *      N/A     73  70  88 SE7       29.81S
CENTERVILLE *  CLEAR     73  72  94 SE6       29.81S
OTTUMWA        PTCLDY    73  68  84 SE8       29.80F
WASHINGTON *   MOCLDY    72  68  88 SE7       29.83S
$$

ABBREVIATIONS USED IN REMARKS
   TC - TEMPERATURES IN CELSIUS
  WCI - WIND CHILL INDEX
   HX - HEAT INDEX
  VSB - VISIBILITY
$$



USA.gov is the U.S. government's official web portal to all federal, state and local government web resources and services.